星链-2657 (STARLINK-2657 )

导读 | 星芒AI

STARLINK-2657 是 SpaceX Starlink 项目中的一颗低轨通信卫星,属于第二代 Starlink 卫星(Gen2)系列。该卫星于2023年发射,旨在为全球提供高速、低延迟的互联网服务。它运行在约550公里高的近地轨道,配备先进通信设备和激光链路,以提升网络性能和卫星间通信效率。STARLINK-2657 是 SpaceX 扩展其全球宽带网络计划的一部分,支持偏远地区的互联网接入,并增强整体星座的冗余与覆盖能力。

基本信息
目录编号:
48655
目录名称:
STARLINK-2657
国际标识:
2021-044T
轨道中心:
EARTH
卫星名称:
星链-2657
卫星全名:
星链-2657 (STARLINK-2657 )
卫星状态:
在轨 (已飞行1618 天)
发射日期:
2021-05-26 UTC
国别 :
美国 (US)
星等 :
--
轨道信息
数据来源 国际轨道数据
星历时间: 2025-10-30T15:12:49+0800
8小时前
查看轨道信息
半长轴: 6925.37km
偏心率: 0.0001378
轨道倾角: 53.057°
近地点辐角 91.836°
升交点赤经 346.959°
平近点角 268.279°
近地点: 546.28km
远地点: 548.19km
周期: 95.593分钟
每日圈数: 15.063932
详细信息
固有亮度:
5
最大亮度:
2.5
卫星平台:
Starlink V1.0
覆盖范围:
全球
运营商:
太空探索技术公司
运营商所在国:
美国
制造商(研发单位):
太空探索技术公司
制造商所在国:
美国
使用方式:
暂无
卫星简介
星链(Starlink)计划是由太空探索技术公司(SpaceX)提出的一个巨型低轨卫星互联网星座项目,计划在2019年至2024年间在太空搭建由约1.2万颗卫星组成的“星链”网络,其中1584颗将部署在地球上空550千米处的近地轨道,并从2020年开始工作。该卫星仍在工作。
2D轨道图
3D轨道图
轨道高度分析图
轨道倾角分析图
轨道综合分析图
查看轨道综合分析图